User: anonymous   Login
Location: Unspecified
(0.0000°N, 0.0000°E)
Time: 12:51:58
(UTC+01:00)
Language:

H-2A R/B - Orbit

View from above orbital plane
View from above orbital plane
View from above satellite
View from above satellite

Ground track
Ground track

The orbit data is extracted from the following two-line orbital elements,

1 26899U 01038B   16342.58044234  .00000436  00000-0  23806-3 0  9997
2 26899  27.9140 143.5097 7115298  60.8118 351.5533  2.47392464131769
Epoch (UTC): 07 December 2016 13:55:50
Eccentricity: 0.7115298
inclination: 27.9140°
perigee height: 283 km
apogee height: 33145 km
right ascension of ascending node: 143.5097°
argument of perigee: 60.8118°
revolutions per day: 2.47392464
mean anomaly at epoch: 351.5533°
orbit number at epoch: 13176

The dashed part of the orbit path shows where the satellite is in the earth's shadow,  

DLR